SHT2D EGLL-EGCC

Flight info

Callsign SHT2D
Flight time 0h 32m
Altitude 18000
Route ULTIB1J ULTIB T420 ELVOS ELVOS1M
Aircraft A320/M-SDE3FGHIJ1KRWXY/S

Departure

Time 2026-05-05 20:15
Airport London Heathrow Airport (EGLL)

Arrival

Time 2026-05-05 20:48
Airport Manchester Airport (EGCC)
Time Latitude Longitude Altitude Speed Heading
2026-05-05 19:55 51.47404 -0.48894 90 ft 0 kts 179°
2026-05-05 20:01 51.47423 -0.48894 88 ft 4 kts 179°
2026-05-05 20:01 51.47444 -0.48894 90 ft 4 kts 182°
2026-05-05 20:02 51.47471 -0.48892 90 ft 4 kts 170°
2026-05-05 20:02 51.47490 -0.48906 89 ft 4 kts 136°
2026-05-05 20:02 51.47505 -0.48935 90 ft 1 kts 128°
2026-05-05 20:02 51.47505 -0.48936 90 ft 0 kts 128°
2026-05-05 20:05 51.47505 -0.48935 90 ft 1 kts 128°
2026-05-05 20:05 51.47488 -0.48881 91 ft 8 kts 102°
2026-05-05 20:05 51.47486 -0.48778 90 ft 10 kts 90°
2026-05-05 20:05 51.47486 -0.48665 88 ft 2 kts 90°
2026-05-05 20:06 51.47486 -0.48661 88 ft 0 kts 89°
2026-05-05 20:06 51.47486 -0.48660 89 ft 0 kts 89°
2026-05-05 20:07 51.47486 -0.48643 88 ft 3 kts 89°
2026-05-05 20:07 51.47486 -0.48602 88 ft 5 kts 89°
2026-05-05 20:07 51.47487 -0.48537 88 ft 7 kts 90°
2026-05-05 20:07 51.47453 -0.48481 88 ft 8 kts 165°
2026-05-05 20:08 51.47387 -0.48477 87 ft 10 kts 179°
2026-05-05 20:08 51.47310 -0.48476 87 ft 12 kts 180°
2026-05-05 20:08 51.47220 -0.48475 87 ft 14 kts 180°
2026-05-05 20:08 51.47117 -0.48475 87 ft 16 kts 179°
2026-05-05 20:09 51.47013 -0.48473 87 ft 14 kts 179°
2026-05-05 20:09 51.46914 -0.48473 87 ft 15 kts 179°
2026-05-05 20:09 51.46801 -0.48472 90 ft 16 kts 179°
2026-05-05 20:09 51.46700 -0.48471 87 ft 13 kts 179°
2026-05-05 20:10 51.46653 -0.48519 88 ft 9 kts 258°
2026-05-05 20:10 51.46651 -0.48632 87 ft 11 kts 270°
2026-05-05 20:10 51.46638 -0.48744 89 ft 10 kts 221°
2026-05-05 20:10 51.46569 -0.48785 89 ft 11 kts 193°
2026-05-05 20:11 51.46495 -0.48756 88 ft 12 kts 135°
2026-05-05 20:11 51.46478 -0.48682 88 ft 1 kts 90°
2026-05-05 20:11 51.46478 -0.48676 88 ft 0 kts 90°
2026-05-05 20:13 51.46478 -0.48673 88 ft 1 kts 90°
2026-05-05 20:14 51.46477 -0.48649 89 ft 3 kts 90°
2026-05-05 20:14 51.46478 -0.48518 88 ft 35 kts 89°
2026-05-05 20:14 51.46480 -0.47758 86 ft 99 kts 90°
2026-05-05 20:14 51.46486 -0.46380 92 ft 146 kts 90°
2026-05-05 20:15 51.46493 -0.44640 446 ft 155 kts 86°
2026-05-05 20:15 51.46514 -0.42901 1063 ft 156 kts 87°
2026-05-05 20:15 51.46727 -0.41177 1548 ft 166 kts 63°
2026-05-05 20:15 51.47466 -0.39607 1787 ft 188 kts 50°
2026-05-05 20:16 51.48369 -0.37898 2033 ft 213 kts 50°
2026-05-05 20:16 51.49380 -0.35974 2411 ft 237 kts 50°
2026-05-05 20:16 51.50468 -0.33892 3098 ft 248 kts 50°
2026-05-05 20:16 51.51582 -0.31756 4000 ft 252 kts 50°
2026-05-05 20:17 51.52234 -0.30205 4563 ft 256 kts 64°
2026-05-05 20:17 51.52863 -0.27486 5401 ft 262 kts 69°
2026-05-05 20:17 51.53456 -0.24696 6257 ft 266 kts 68°
2026-05-05 20:17 51.54354 -0.22101 7021 ft 269 kts 46°
2026-05-05 20:18 51.55852 -0.20327 7784 ft 271 kts 21°
2026-05-05 20:18 51.57694 -0.19756 8624 ft 273 kts 356°
2026-05-05 20:18 51.59525 -0.20546 9401 ft 277 kts 330°
2026-05-05 20:18 51.60984 -0.22578 10169 ft 282 kts 309°
2026-05-05 20:19 51.62344 -0.25012 10414 ft 304 kts 319°
2026-05-05 20:19 51.64109 -0.27105 10598 ft 325 kts 328°
2026-05-05 20:19 51.66107 -0.28958 11107 ft 334 kts 332°
2026-05-05 20:19 51.68171 -0.30714 11760 ft 338 kts 332°
2026-05-05 20:20 51.70264 -0.32496 12414 ft 342 kts 331°
2026-05-05 20:20 51.72362 -0.34350 13079 ft 345 kts 330°
2026-05-05 20:20 51.74459 -0.36280 13743 ft 349 kts 329°
2026-05-05 20:20 51.76562 -0.38278 14334 ft 353 kts 328°
2026-05-05 20:21 51.78676 -0.40325 14836 ft 356 kts 328°
2026-05-05 20:21 51.80808 -0.42406 15404 ft 360 kts 328°
2026-05-05 20:21 51.82932 -0.44482 15957 ft 363 kts 328°
2026-05-05 20:21 51.85137 -0.46633 16515 ft 367 kts 328°
2026-05-05 20:22 51.87333 -0.48772 17070 ft 371 kts 328°
2026-05-05 20:22 51.89563 -0.50944 17627 ft 375 kts 328°
2026-05-05 20:22 51.91812 -0.53135 17921 ft 379 kts 328°
2026-05-05 20:22 51.94105 -0.55367 17977 ft 391 kts 328°
2026-05-05 20:23 51.96427 -0.57625 17976 ft 396 kts 328°
2026-05-05 20:23 51.98825 -0.59964 17979 ft 398 kts 328°
2026-05-05 20:23 52.01197 -0.62286 17977 ft 398 kts 328°
2026-05-05 20:23 52.03568 -0.64609 17982 ft 398 kts 328°
2026-05-05 20:24 52.05910 -0.66904 17980 ft 398 kts 327°
2026-05-05 20:24 52.08311 -0.69258 17983 ft 398 kts 327°
2026-05-05 20:24 52.10676 -0.71585 17987 ft 398 kts 327°
2026-05-05 20:24 52.13046 -0.73922 17989 ft 398 kts 327°
2026-05-05 20:25 52.15413 -0.76254 17991 ft 398 kts 327°
2026-05-05 20:25 52.17751 -0.78557 17998 ft 398 kts 327°
2026-05-05 20:25 52.20115 -0.80889 18007 ft 398 kts 327°
2026-05-05 20:25 52.22480 -0.83231 18007 ft 397 kts 327°
2026-05-05 20:26 52.24846 -0.85574 18016 ft 397 kts 327°
2026-05-05 20:26 52.27209 -0.87913 18020 ft 397 kts 327°
2026-05-05 20:26 52.29571 -0.90257 18020 ft 397 kts 327°
2026-05-05 20:26 52.31929 -0.92600 18024 ft 397 kts 327°
2026-05-05 20:27 52.34285 -0.94940 18027 ft 396 kts 327°
2026-05-05 20:27 52.36645 -0.97290 18029 ft 396 kts 327°
2026-05-05 20:27 52.38998 -0.99637 18030 ft 396 kts 327°
2026-05-05 20:27 52.41351 -1.01988 18034 ft 396 kts 327°
2026-05-05 20:28 52.43670 -1.04310 18033 ft 396 kts 327°
2026-05-05 20:28 52.46018 -1.06665 18037 ft 395 kts 327°
2026-05-05 20:28 52.48369 -1.09025 18042 ft 395 kts 327°
2026-05-05 20:28 52.50717 -1.11384 18043 ft 395 kts 327°
2026-05-05 20:29 52.53061 -1.13741 18046 ft 395 kts 327°
2026-05-05 20:29 52.55404 -1.16104 18050 ft 395 kts 327°
2026-05-05 20:29 52.57749 -1.18459 18051 ft 395 kts 327°
2026-05-05 20:29 52.60102 -1.20805 18049 ft 395 kts 327°
2026-05-05 20:30 52.62451 -1.23143 18051 ft 394 kts 327°
2026-05-05 20:30 52.64768 -1.25448 18052 ft 394 kts 327°
2026-05-05 20:30 52.67116 -1.27785 18054 ft 394 kts 327°
2026-05-05 20:30 52.69467 -1.30125 18054 ft 394 kts 327°
2026-05-05 20:31 52.71814 -1.32472 18053 ft 394 kts 327°
2026-05-05 20:31 52.74145 -1.34832 18081 ft 393 kts 326°
2026-05-05 20:31 52.76473 -1.37209 18082 ft 393 kts 326°
2026-05-05 20:31 52.78771 -1.39567 17872 ft 384 kts 326°
2026-05-05 20:32 52.81007 -1.41864 17599 ft 373 kts 326°
2026-05-05 20:32 52.83184 -1.44097 17332 ft 363 kts 326°
2026-05-05 20:32 52.85303 -1.46269 17055 ft 354 kts 326°
2026-05-05 20:32 52.87380 -1.48401 16603 ft 349 kts 326°
2026-05-05 20:33 52.89438 -1.50518 16139 ft 347 kts 326°
2026-05-05 20:33 52.91477 -1.52612 15732 ft 342 kts 327°
2026-05-05 20:33 52.93482 -1.54675 15346 ft 337 kts 327°
2026-05-05 20:33 52.95470 -1.56725 14883 ft 335 kts 327°
2026-05-05 20:34 52.97445 -1.58765 14426 ft 334 kts 327°
2026-05-05 20:34 52.99411 -1.60797 13971 ft 332 kts 327°
2026-05-05 20:34 53.01362 -1.62820 13479 ft 330 kts 327°
2026-05-05 20:34 53.03303 -1.64832 13016 ft 327 kts 327°
2026-05-05 20:35 53.05173 -1.66950 12564 ft 324 kts 320°
2026-05-05 20:35 53.06729 -1.69555 12118 ft 321 kts 310°
2026-05-05 20:35 53.08173 -1.72373 11648 ft 319 kts 310°
2026-05-05 20:35 53.09614 -1.75174 11193 ft 318 kts 311°
2026-05-05 20:36 53.11052 -1.77960 10738 ft 316 kts 311°
2026-05-05 20:36 53.12475 -1.80710 10508 ft 308 kts 311°
2026-05-05 20:36 53.13843 -1.83356 10439 ft 295 kts 311°
2026-05-05 20:36 53.15154 -1.85899 10375 ft 287 kts 311°
2026-05-05 20:37 53.16464 -1.88446 10311 ft 290 kts 311°
2026-05-05 20:37 53.17779 -1.91005 10251 ft 291 kts 311°
2026-05-05 20:37 53.19085 -1.93558 10063 ft 287 kts 311°
2026-05-05 20:37 53.20362 -1.96057 9905 ft 278 kts 311°
2026-05-05 20:38 53.21609 -1.98498 9770 ft 275 kts 311°
2026-05-05 20:38 53.22697 -2.01108 9636 ft 275 kts 297°
2026-05-05 20:38 53.23282 -2.04145 9500 ft 277 kts 280°
2026-05-05 20:38 53.23307 -2.07369 9233 ft 282 kts 264°
2026-05-05 20:39 53.22912 -2.10595 8815 ft 283 kts 259°
2026-05-05 20:39 53.22494 -2.13782 8521 ft 280 kts 259°
2026-05-05 20:39 53.22080 -2.16959 8151 ft 279 kts 259°
2026-05-05 20:39 53.21669 -2.20146 7544 ft 287 kts 259°
2026-05-05 20:40 53.21248 -2.23434 6771 ft 290 kts 259°
2026-05-05 20:40 53.20826 -2.26724 6045 ft 289 kts 258°
2026-05-05 20:40 53.20407 -2.29978 5436 ft 284 kts 258°
2026-05-05 20:40 53.19988 -2.33216 4881 ft 288 kts 258°
2026-05-05 20:41 53.19570 -2.36450 4329 ft 281 kts 258°
2026-05-05 20:41 53.19168 -2.39545 4144 ft 262 kts 258°
2026-05-05 20:41 53.19022 -2.42432 4077 ft 239 kts 278°
2026-05-05 20:41 53.19452 -2.44954 4011 ft 216 kts 299°
2026-05-05 20:42 53.20256 -2.46877 3961 ft 192 kts 316°
2026-05-05 20:42 53.21218 -2.48271 3832 ft 176 kts 323°
2026-05-05 20:42 53.22143 -2.49538 3689 ft 167 kts 328°
2026-05-05 20:42 53.23151 -2.50184 3549 ft 152 kts
2026-05-05 20:43 53.24154 -2.49933 3483 ft 146 kts 26°
2026-05-05 20:43 53.24949 -2.48960 3353 ft 141 kts 53°
2026-05-05 20:43 53.25568 -2.47690 3187 ft 140 kts 53°
2026-05-05 20:43 53.26183 -2.46427 3007 ft 140 kts 52°
2026-05-05 20:44 53.26794 -2.45175 2817 ft 138 kts 52°
2026-05-05 20:44 53.27396 -2.43938 2628 ft 136 kts 53°
2026-05-05 20:44 53.27990 -2.42717 2451 ft 135 kts 53°
2026-05-05 20:44 53.28578 -2.41508 2248 ft 133 kts 53°
2026-05-05 20:45 53.29736 -2.39127 1903 ft 132 kts 52°
2026-05-05 20:45 53.30317 -2.37932 1721 ft 132 kts 52°
2026-05-05 20:45 53.30896 -2.36739 1532 ft 133 kts 52°
2026-05-05 20:46 53.31476 -2.35544 1346 ft 132 kts 53°
2026-05-05 20:46 53.32054 -2.34353 1146 ft 131 kts 51°
2026-05-05 20:46 53.32628 -2.33169 950 ft 132 kts 51°
2026-05-05 20:46 53.33202 -2.31986 760 ft 131 kts 51°
2026-05-05 20:47 53.33774 -2.30804 577 ft 131 kts 51°
2026-05-05 20:47 53.34345 -2.29626 413 ft 130 kts 51°
2026-05-05 20:47 53.34914 -2.28449 257 ft 130 kts 51°
2026-05-05 20:47 53.35416 -2.27410 238 ft 93 kts 51°
2026-05-05 20:48 53.35704 -2.26815 243 ft 29 kts 52°
2026-05-05 20:48 53.35792 -2.26679 247 ft 15 kts
2026-05-05 20:48 53.35904 -2.26722 236 ft 16 kts 321°
2026-05-05 20:48 53.35882 -2.26872 233 ft 10 kts 232°
2026-05-05 20:49 53.35858 -2.26925 233 ft 4 kts 234°
2026-05-05 20:49 53.35835 -2.26982 233 ft 7 kts 238°
2026-05-05 20:49 53.35805 -2.27068 233 ft 10 kts 240°
2026-05-05 20:49 53.35812 -2.27176 234 ft 11 kts 310°
2026-05-05 20:50 53.35801 -2.27299 234 ft 13 kts 232°
2026-05-05 20:50 53.35740 -2.27423 233 ft 15 kts 230°
2026-05-05 20:50 53.35679 -2.27557 233 ft 13 kts 245°
2026-05-05 20:50 53.35719 -2.27625 235 ft 10 kts 336°
2026-05-05 20:51 53.35783 -2.27684 234 ft 11 kts 320°
2026-05-05 20:51 53.35840 -2.27790 233 ft 14 kts 315°
2026-05-05 20:51 53.35930 -2.27846 233 ft 15 kts 356°
2026-05-05 20:51 53.36021 -2.27949 233 ft 18 kts 315°
2026-05-05 20:52 53.36109 -2.28099 233 ft 17 kts 314°
2026-05-05 20:52 53.36195 -2.28248 233 ft 18 kts 313°
2026-05-05 20:52 53.36280 -2.28394 233 ft 19 kts 315°
2026-05-05 20:52 53.36359 -2.28506 233 ft 13 kts 342°
2026-05-05 20:53 53.36440 -2.28514 233 ft 13 kts 329°
2026-05-05 20:53 53.36508 -2.28628 233 ft 15 kts 317°
2026-05-05 20:53 53.36542 -2.28684 233 ft 0 kts 315°
2026-05-05 20:55 53.36548 -2.28693 233 ft 5 kts 315°
2026-05-05 20:55 53.36586 -2.28787 234 ft 14 kts 292°
2026-05-05 20:55 53.36659 -2.28900 233 ft 14 kts 338°
2026-05-05 20:55 53.36732 -2.29018 233 ft 15 kts 315°
2026-05-05 20:56 53.36826 -2.29005 233 ft 15 kts 32°
2026-05-05 20:56 53.36903 -2.28883 233 ft 16 kts 45°
2026-05-05 20:56 53.36961 -2.28787 233 ft 5 kts 44°
2026-05-05 20:56 53.36975 -2.28753 233 ft 3 kts 81°
2026-05-05 20:57 53.36963 -2.28720 233 ft 4 kts 134°
2026-05-05 20:57 53.36949 -2.28696 233 ft 0 kts 134°